[[{"header":{"parameterUnit":"m.s-1","parameterCategory":1,"la1":30.2991,"la2":30.254,"lo1":-89.0895,"lo2":-89.0444,"dy":0.0017,"dx":0.0017,"nx":28,"ny":28,"refTime":"2025-12-24T03:00:00:Z","depth":0,"parameterNumber":2,"parameterNumberName":"U-component_of_WINDS"},"data":[0,0,0,0,0,0,0,0,0,0,0,0,0,0,0,0,0,0,0,0,0,0,0,0,0,0,0,0,0,0,0,0,0,0,0,0,0,0,0,0,0,0,0,0,0,0,0,0,0,0,0,0,0,0,0,0,0,0,0.5421,0.5421,0,0.5431,0.5431,0.5431,0.5428,0.5427,0.5427,0.5427,0.5438,0.5438,0.5439,0,0,0,0,0,0,0,0,0,0,0,0,0,0.5399,0.5399,0.5421,0.5421,0.5421,0.5431,0.5431,0.5431,0.5428,0.5427,0.5427,0.5427,0.5437,0.5438,0.5439,0,0,0,0,0,0,0,0,0,0,0,0,0,0.5408,0.5399,0.5421,0.5421,0.5421,0.5431,0.5431,0.5431,0.5428,0.5427,0.5427,0.5427,0.5437,0.5438,0.5439,0.545,0,0,0.5441,0.5441,0,0,0,0,0,0,0,0,0.5408,0.5409,0.542,0.5421,0.5421,0.5428,0.5427,0.5438,0.5428,0.5425,0.5427,0.5427,0.5435,0.5436,0.5438,0.5451,0.5451,0.5441,0.5442,0.5442,0.5442,0,0,0,0,0,0,0,0.5407,0.5409,0.5425,0.5421,0.5421,0.542,0.5421,0.5429,0.5432,0.5425,0.5425,0.5426,0.5435,0.5438,0.5438,0.5451,0.5441,0.5442,0.5442,0.5442,0.5474,0.5475,0,0,0,0,0,0,0.5406,0.5408,0.5425,0.5425,0.5413,0.5421,0.5422,0.5426,0.5432,0.5432,0.5427,0.5426,0.5436,0.5438,0.5439,0.5453,0.5442,0.5443,0.5443,0.5474,0.5474,0.5475,0,0,0,0,0,0,0.5406,0.5408,0.5424,0.5417,0.5419,0.5421,0.5426,0.5426,0.5429,0.5433,0.5433,0.5429,0.5436,0.5438,0.5448,0.5453,0.5443,0.5444,0.5473,0.5474,0.5475,0.5481,0,0,0,0,0,0,0.5405,0.5408,0.5412,0.5417,0.5419,0.5433,0.5426,0.5427,0.543,0.543,0.5435,0.5436,0.5436,0.5446,0.5448,0.5454,0.5444,0.5473,0.5474,0.5474,0.5481,0.5482,0.5483,0,0,0,0,0,0.5405,0.5414,0.5412,0.5414,0.5425,0.5433,0.5434,0.5435,0.5431,0.5435,0.5438,0.5435,0.5452,0.5447,0.5449,0.5456,0.5473,0.5473,0.5474,0.548,0.5482,0.5483,0,0,0,0,0,0,0.5409,0.5414,0.5413,0.5424,0.5428,0.5432,0.5438,0.5437,0.5442,0.5441,0.5442,0.5443,0.5453,0.5455,0.545,0.5467,0.5462,0.5463,0.5466,0.5467,0.5469,0.5468,0.5445,0,0,0,0,0,0.5412,0.5418,0.5422,0.5431,0.5433,0.5435,0.5439,0.5439,0.5443,0.5445,0.5448,0.5453,0.5459,0.5463,0.5469,0.5481,0.5482,0.5486,0.5488,0.5489,0.549,0.5497,0.5499,0.5478,0.5478,0.5478,0,0,0.5416,0.542,0.5424,0.5432,0.5435,0.5442,0.5437,0.5444,0.5449,0.5446,0.5456,0.5458,0.5463,0.5474,0.5479,0.5476,0.5496,0.549,0.5491,0.5491,0.5498,0.55,0.5502,0.5478,0.5478,0.5478,0,0,0.5429,0.5432,0.544,0.5444,0.5449,0.545,0.5452,0.5457,0.5458,0.5468,0.5466,0.5472,0.5483,0.5487,0.549,0.5504,0.5503,0.5506,0.5514,0.552,0.5522,0.5523,0.5529,0.5531,0.5507,0.5507,0.5507,0,0.5434,0.5444,0.5444,0.5452,0.5456,0.5454,0.5462,0.5465,0.5472,0.5475,0.5472,0.5486,0.5489,0.5501,0.5505,0.5507,0.551,0.5506,0.5522,0.5523,0.5525,0.553,0.5532,0.5508,0.5508,0.5508,0.5508,0,0.5451,0.5458,0.5464,0.5471,0.5475,0.5483,0.5485,0.5489,0.5489,0.5491,0.55,0.5504,0.5511,0.5514,0.5514,0.5526,0.5524,0.5521,0.5516,0.5527,0.5532,0.5534,0.5509,0.5508,0.5508,0.5508,0,0,0.5466,0.5473,0.5476,0.5479,0.5485,0.549,0.5498,0.5505,0.5509,0.5514,0.5521,0.553,0.5528,0.5532,0.5532,0.5538,0.5549,0.5534,0.5534,0.5537,0.5564,0.5566,0.5568,0.5548,0.5548,0.5549,0.5563,0,0.548,0.5494,0.5494,0.5507,0.5514,0.5512,0.5519,0.5523,0.5525,0.5531,0.5533,0.554,0.5536,0.5538,0.5544,0.5547,0.5555,0.5545,0.5555,0.5555,0.5554,0.5571,0.5573,0.5587,0.5565,0.5566,0.5566,0,0.5497,0.5502,0.5516,0.5521,0.5524,0.553,0.5537,0.5543,0.5548,0.5549,0.5553,0.5552,0.5561,0.5555,0.5567,0.5561,0.5564,0.5566,0.5567,0.5568,0.5561,0.5573,0.5591,0.5594,0.5569,0.5569,0.5568,0,0.5507,0.5518,0.5528,0.5531,0.5537,0.5541,0.5544,0.5549,0.5553,0.5559,0.5562,0.5568,0.5572,0.5577,0.5579,0.5574,0.5591,0.5585,0.5592,0.5592,0.5596,0.5596,0.5616,0.5598,0.5598,0.5598,0.5598,0,0.5522,0.5531,0.5533,0.5539,0.5548,0.5549,0.5558,0.5561,0.5565,0.5572,0.557,0.5577,0.5578,0.5584,0.5585,0.5595,0.5597,0.5598,0.5598,0.5599,0.5598,0.5601,0.56,0.5598,0.5598,0.5598,0.5598,0,0.5536,0.5537,0.5548,0.5553,0.5554,0.5561,0.5566,0.5571,0.5573,0.5582,0.5584,0.5587,0.5594,0.5596,0.5605,0.5606,0.5618,0.5617,0.5616,0.5616,0.5623,0.5623,0.5646,0.565,0.5629,0.5629,0.563,0,0.5545,0.5552,0.5557,0.5562,0.5565,0.5572,0.5576,0.5577,0.5582,0.5588,0.5593,0.5601,0.5607,0.562,0.5623,0.563,0.5629,0.5637,0.563,0.563,0.563,0.5629,0.563,0.5638,0.5638,0.5639,0.5639,0,0.5562,0.5563,0.5569,0.5576,0.5581,0.5586,0.5592,0.5595,0.5597,0.5602,0.561,0.5615,0.5624,0.5632,0.5639,0.5642,0.5641,0.5641,0.5643,0.5643,0.5643,0.5644,0.562,0.564,0.564,0.564,0.564,0.564,0.5574,0.558,0.5585,0.5592,0.5596,0.5601,0.5607,0.561,0.5616,0.5624,0.5624,0.5633,0.5638,0.5648,0.5651,0.5658,0.5656,0.5659,0.566,0.566,0.5661,0.5641,0.5659,0.5659,0.5659,0.5659,0.5659,0,0.5591,0.5594,0.5601,0.5608,0.5614,0.5612,0.5618,0.5623,0.5631,0.5636,0.5642,0.5651,0.5659,0.5662,0.567,0.5675,0.5674,0.5677,0.5677,0.5677,0.5663,0.566,0.5677,0.5677,0.5677,0.5677,0.5677,0.5677,0.5601,0.5611,0.5612,0.5624,0.5627,0.5636,0.5639,0.5644,0.5648,0.5659,0.5665,0.5667,0.5672,0.568,0.5687,0.5687,0.569,0.5693,0.5694,0.568,0.5678,0.5677,0.5674,0.5694,0.5694,0.5708,0.5708,0.5708]},{"header":{"parameterUnit":"m.s-1","parameterCategory":1,"la1":30.2991,"la2":30.254,"lo1":-89.0895,"lo2":-89.0444,"dy":0.0017,"dx":0.0017,"nx":28,"ny":28,"refTime":"2025-12-24T03:00:00:Z","depth":0,"parameterNumber":3,"parameterNumberName":"V-component_of_WINDS"},"data":[0,0,0,0,0,0,0,0,0,0,0,0,0,0,0,0,0,0,0,0,0,0,0,0,0,0,0,0,0,0,0,0,0,0,0,0,0,0,0,0,0,0,0,0,0,0,0,0,0,0,0,0,0,0,0,0,0,0,0.4544,0.4543,0,0.447,0.4469,0.4469,0.4448,0.4449,0.4449,0.445,0.4372,0.4369,0.4367,0,0,0,0,0,0,0,0,0,0,0,0,0,0.4664,0.4662,0.4544,0.4543,0.4542,0.447,0.4469,0.4468,0.4448,0.4449,0.4449,0.445,0.4373,0.437,0.4367,0,0,0,0,0,0,0,0,0,0,0,0,0,0.4603,0.4661,0.4544,0.4523,0.4521,0.4471,0.4469,0.4468,0.4448,0.4449,0.4449,0.445,0.4374,0.437,0.4366,0.4331,0,0,0.4355,0.4353,0,0,0,0,0,0,0,0,0.4606,0.4599,0.4527,0.4525,0.4522,0.4469,0.4483,0.4422,0.4448,0.4476,0.445,0.445,0.4403,0.4397,0.4382,0.4327,0.4324,0.4355,0.4352,0.4351,0.435,0,0,0,0,0,0,0,0.4611,0.4602,0.4515,0.4526,0.4523,0.4517,0.4509,0.4471,0.4437,0.4473,0.4472,0.4463,0.4402,0.4386,0.438,0.4322,0.4355,0.4351,0.4349,0.4348,0.4233,0.4232,0,0,0,0,0,0,0.4619,0.4605,0.4517,0.4512,0.4567,0.4514,0.4505,0.4485,0.4437,0.443,0.4463,0.4463,0.4392,0.4384,0.4377,0.4331,0.4351,0.4347,0.4345,0.4234,0.4233,0.4232,0,0,0,0,0,0,0.4621,0.4611,0.452,0.4558,0.4546,0.4511,0.4489,0.4484,0.4467,0.4429,0.4423,0.4453,0.4392,0.4383,0.4342,0.4328,0.4346,0.4342,0.4235,0.4234,0.4232,0.424,0,0,0,0,0,0,0.4625,0.4612,0.4599,0.4558,0.4544,0.4487,0.4488,0.4482,0.4461,0.446,0.4418,0.4412,0.4392,0.4348,0.4339,0.4324,0.4339,0.4236,0.4234,0.4233,0.4241,0.4239,0.4238,0,0,0,0,0,0.4629,0.4604,0.4598,0.4588,0.4527,0.4486,0.4478,0.4457,0.446,0.4446,0.4422,0.4413,0.4332,0.4344,0.4333,0.4317,0.4237,0.4235,0.4233,0.4242,0.424,0.4238,0,0,0,0,0,0,0.4643,0.4598,0.4592,0.4552,0.4523,0.4483,0.4464,0.4455,0.4424,0.4424,0.4398,0.4389,0.435,0.433,0.4344,0.4279,0.4284,0.428,0.4294,0.4292,0.429,0.4296,0.4336,0,0,0,0,0,0.4641,0.4613,0.4575,0.4544,0.453,0.45,0.4481,0.4467,0.4435,0.4423,0.4395,0.4365,0.4332,0.4311,0.4279,0.4238,0.4228,0.4222,0.422,0.4219,0.4216,0.4191,0.4188,0.4226,0.4226,0.4226,0,0,0.4638,0.461,0.4593,0.4546,0.4522,0.4491,0.4489,0.4458,0.4435,0.4418,0.4378,0.4357,0.4321,0.428,0.426,0.4261,0.4203,0.4217,0.4216,0.4213,0.4189,0.4185,0.4182,0.4225,0.4225,0.4225,0,0,0.4616,0.4592,0.4563,0.4539,0.4503,0.4483,0.4476,0.4437,0.4423,0.4383,0.4369,0.4341,0.4286,0.426,0.424,0.4208,0.4198,0.4198,0.419,0.4167,0.4163,0.4161,0.4148,0.4144,0.4195,0.4195,0.4195,0,0.4616,0.4571,0.4549,0.4518,0.4497,0.4481,0.4451,0.4429,0.4383,0.4369,0.4371,0.4301,0.4275,0.4228,0.422,0.4205,0.4195,0.4202,0.4166,0.4163,0.416,0.4148,0.4143,0.4195,0.4195,0.4195,0.4195,0,0.4572,0.4541,0.4521,0.4479,0.4456,0.4426,0.4399,0.4378,0.4365,0.4345,0.4304,0.4273,0.4234,0.4222,0.4209,0.4172,0.4174,0.4171,0.4175,0.4157,0.4145,0.414,0.4195,0.4195,0.4195,0.4195,0,0,0.4556,0.4502,0.4495,0.4475,0.4434,0.4409,0.4378,0.434,0.4322,0.4292,0.4264,0.4217,0.4215,0.4192,0.4176,0.4156,0.4131,0.4156,0.4154,0.4151,0.4087,0.4088,0.4083,0.4125,0.4124,0.4123,0.4089,0,0.4528,0.4472,0.4451,0.4405,0.4375,0.4359,0.4332,0.4303,0.4283,0.4254,0.4232,0.4199,0.4198,0.4184,0.4164,0.4139,0.4118,0.4141,0.4097,0.4096,0.4106,0.4077,0.4078,0.4048,0.4085,0.4084,0.4083,0,0.4488,0.4457,0.4408,0.437,0.4356,0.4332,0.4296,0.4269,0.4235,0.4222,0.4197,0.4182,0.4148,0.4154,0.4105,0.4121,0.4102,0.4087,0.4086,0.408,0.4088,0.4069,0.4038,0.4033,0.4076,0.4076,0.4077,0,0.448,0.4426,0.4389,0.4373,0.4328,0.4311,0.4291,0.4259,0.4237,0.4205,0.4191,0.4155,0.4135,0.4107,0.4083,0.4091,0.4036,0.4041,0.4023,0.4023,0.4011,0.4012,0.3975,0.4001,0.4001,0.4001,0.4001,0,0.445,0.442,0.4385,0.4363,0.4328,0.4305,0.4271,0.425,0.4221,0.4193,0.4178,0.4152,0.4122,0.4092,0.4073,0.4035,0.4026,0.4013,0.4008,0.4014,0.4016,0.4001,0.4002,0.4,0.4,0.4,0.4,0,0.4435,0.4411,0.4369,0.433,0.432,0.4296,0.4262,0.4239,0.4218,0.4183,0.4173,0.4141,0.4104,0.4078,0.4031,0.4018,0.3977,0.3972,0.3988,0.3985,0.3968,0.397,0.392,0.3911,0.3944,0.3944,0.3943,0,0.4417,0.4394,0.4352,0.4333,0.4313,0.4282,0.4261,0.4236,0.4214,0.4174,0.4155,0.4118,0.4087,0.4029,0.4001,0.3964,0.3958,0.3943,0.3952,0.3959,0.3956,0.3958,0.3955,0.3941,0.3941,0.3941,0.3941,0,0.4388,0.4377,0.4346,0.4312,0.4286,0.4257,0.4228,0.4213,0.4184,0.4159,0.4122,0.4098,0.405,0.4013,0.3974,0.3952,0.3941,0.3938,0.3932,0.3937,0.3946,0.394,0.3983,0.3939,0.3939,0.3939,0.394,0.394,0.437,0.4348,0.4315,0.4282,0.4257,0.4231,0.4207,0.4183,0.4152,0.4112,0.41,0.4061,0.4027,0.3973,0.3951,0.392,0.392,0.3911,0.3909,0.3907,0.3906,0.3953,0.3913,0.3913,0.3913,0.3913,0.3913,0,0.4338,0.4317,0.4286,0.4246,0.422,0.4213,0.418,0.4158,0.4124,0.4094,0.4064,0.4021,0.3985,0.3953,0.3915,0.3896,0.389,0.3887,0.3887,0.3882,0.3909,0.3918,0.3892,0.3892,0.3892,0.3892,0.3892,0.3892,0.4319,0.4282,0.4267,0.4217,0.4195,0.4157,0.4139,0.4114,0.409,0.4042,0.4012,0.3993,0.3962,0.3921,0.3887,0.3879,0.3865,0.3863,0.3853,0.3878,0.388,0.3883,0.3891,0.386,0.386,0.3828,0.3828,0.3828]}]]